Location: Ash Swamp
(41.5170°N, 74.6157°W)
Time: 16:49:17
(UTC+00:00)

ATLAS CENTAUR R/B - Pass Details

Date: 14 July 2020
Orbit: 475 x 672 km, 64.7° (Epoch: 13 July)

Event Time Altitude Azimuth Distance (km) Brightness Sun altitude
Rises 01:22:45 0° 320° (NW) 2,544 6.8 -8.7°
Reaches altitude 10° 01:24:58 10° 313° (NW) 1,652 5.5 -9.0°
Maximum altitude 01:28:25 40° 242° (WSW) 707 2.1 -9.5°
Drops below altitude 10° 01:31:51 10° 172° (S) 1,644 3.3 -10.0°
Enters shadow 01:32:12 - 170° (S) 1,780 3.5 -10.0°
